Location: ??????
(30.5519°N, 47.7720°E)
Time: 18:07:23
(UTC+00:00)

Cosmos 2278 Rocket - Pass Details

Date: 24 January 2021
Orbit: 840 x 847 km, 71.0° (Epoch: 01 March)

Event Time Altitude Azimuth Distance (km) Brightness Sun altitude
Rises 15:33:34 0° 196° (SSW) 3,382 5.7 -16.3°
Reaches altitude 10° 15:35:59 10° 195° (SSW) 2,451 5.0 -16.8°
Maximum altitude 15:41:37 82° 108° (ESE) 854 2.1 -18.0°
Enters shadow 15:46:43 13° 22° (NNE) 2,253 4.1 -19.1°
